Regional Weather Roundup
Issued by NWS Northern Indiana

Home | Current Version | Previous Version | Graphics & Text | Print | Product List | Glossary On
Versions: 1 2 3 4 5 6 7 8 9 10 11 12 13 14 15 16 17 18 19 20 21 22 23 24 25 26 27 28 29 30 31 32 33 34 35 36 37 38 39 40 41 42 43 44 45 46 47 48 49 50
000
ASUS43 KIWX 031400
RWRIWX

KIWX WEATHER ROUNDUP
NATIONAL WEATHER SERVICE NORTHERN INDIANA
1000 AM EDT WED JUN 03 2015

NOTE: "FAIR" INDICATES FEW OR NO CLOUDS BELOW 12,000 FEET WITH NO
SIGNIFICANT WEATHER AND/OR OBSTRUCTIONS TO VISIBILITY.

* THESE STATIONS ARE NOT UNDER NWS QUALITY CONTROL. THEY ALSO MAY NOT
  REPORT WEATHER SUCH AS PRECIPITATION OR FOG.

INZ001>027-031500-
NORTHERN INDIANA

CITY           SKY/WX    TMP DP  RH WIND       PRES   REMARKS
GARY*          MOSUNNY   64  52  63 SE7       30.10F
SOUTH BEND     SUNNY     63  51  65 VRB5      30.12S
ELKHART*       SUNNY     61  50  67 CALM      30.12S
GOSHEN         MOSUNNY   63  54  72 VRB7      30.12S
ANGOLA*        MOSUNNY   63  52  67 SE5       30.13S
FORT WAYNE     CLOUDY    58  54  86 CALM      30.14R
PERU/GRISSOM   SUNNY     62  54  75 E3        30.09F

$$
INZ028>050-031500-
CENTRAL INDIANA

CITY           SKY/WX    TMP DP  RH WIND       PRES   REMARKS
LAFAYETTE      SUNNY     61  55  81 VRB3      30.10F
KOKOMO*        SUNNY     61  54  77 E5        30.11S
MUNCIE*        MOSUNNY   62  55  77 SE7       30.12R
INDIANAPOLIS   CLOUDY    60  52  74 CALM      30.09S

$$
MIZ043>046-050>051-056>058-064>065-071>073-077>080-031500-
SOUTHWEST LOWER MICHIGAN

CITY           SKY/WX    TMP DP  RH WIND       PRES   REMARKS
BATTLE CREEK   SUNNY     63  53  70 S5        30.13F
BENTON HARBOR  SUNNY     62  51  67 VRB7      30.10F
COLDWATER*     SUNNY     62  55  76 SE5       30.13S
HILLSDALE*     SUNNY     64  55  74 SE3       30.14R
HOLLAND        SUNNY     63  51  65 SE6       30.12F
GRAND RAPIDS   PTSUNNY   61  50  67 VRB6      30.14S
KALAMAZOO      MOSUNNY   63  52  67 S6        30.13S
STURGIS*       MOSUNNY   63  55  77 SE5       30.12S
THREE RIVERS*  FAIR      62  52  71 NE3       30.13S

$$
OHZ001>008-015>018-024>025-031500-
NORTHWEST OHIO

CITY           SKY/WX    TMP DP  RH WIND       PRES   REMARKS
DEFIANCE       MOSUNNY   64  54  69 N5        30.13S
FINDLAY        CLOUDY    65  55  70 E8        30.11S
TOLEDO EXPRESS MOSUNNY   65  54  67 E7        30.13S
TOLEDO METCALF SUNNY     66  54  65 E9        30.14S
LIMA           CLOUDY    62  56  80 E7        30.12S

$$
AND FOR LAKE MICHIGAN COASTAL AND OPEN LAKE BUOY OBSERVATIONS

STATION/POSITION TEMP    WIND        PRES    VSBY  WAVE
                 AIR SEA DIR/SP/G                  HT/PER
                 (F)     (DEG/KT/KT) (MB)    (MI)  (FT/S)
CALUMET HARBOR    62     170/  5/  8   N/A
MICHIGAN CITY     59     130/ 10/ 11   N/A
BURNS HARBOR      63     180/  8/ 10 1019.6S
SAINT JOSEPH      58     170/  2/  5 1020.3R
SOUTH LAKE BUOY   45 39  130/  4/  4 1020.0S         0
4 MI NW BRIDGMAN  57 55  200/  2/  4   N/A           1
MICHIGAN CITY     60 57   CALM  /  2   N/A           1

$$
&&


USA.gov is the U.S. government's official web portal to all federal, state and local government web resources and services.